SCP
0 0 0 0 0 0 0 0 0 0 0 0 0 0 0 0 0 0 0 0 0 0 0 0 0 0 0 0 0 0 0 0 0 0 0 0 0 0 0 0 0 0 0 0 0 0 0 0 0
0 0 0 0 0 0 0 0 0 0 0 0 0 0 0 0 0 0 0 0 0 0 0 0 0 0 0 0 0 0 0 0 0 0 0 0 0 0 0 0 0 0 0 0 0 0 0 0 0
0 0 0 0 0 0 0 0 0 0 0 0 0 0 0 0 0 0 0 0 0 0 0 0 0 0 0 0 0 0 0 0 0 0 0 0 0 0 0 0 0 0 0 0 0 0 0 0 0
0 0 0 0 0 0 0 0 0 0 0 0 0 0 0 0 0 0 0 0 0 0 0 0 0 0 0 0 0 0 0 0 0 0 0 0 0 0 0 0 0 0 0 0 0 0 0 0 0
0 0 0 0 0 0 0 0 0 0 0 0 0 0 0 0 1 1 1 1 1 0 0 0 0 0 0 0 0 0 0 0 0 0 0 0 0 0 0 0 0 0 0 0 0 0 -0 0 0
0 0 0 0 0 0 0 0 0 0 0 0 0 0 0 1 1 1 1 1 1 1 0 0 0 0 0 0 0 0 0 0 0 0 0 0 0 0 0 -0 -0 -0 -0 -0 -0 -0 -0 -0 0
0 0 0 0 0 0 0 0 0 0 0 0 0 0 1 1 1 1 1 1 1 1 0 0 0 0 0 0 0 0 0 0 0 0 0 0 0 0 -0 -0 -0 -0 -0 -0 -0 -0 -0 -0 0
0 0 0 0 0 0 0 0 0 0 0 0 0 0 1 1 1 1 1 1 1 1 0 0 0 0 0 0 0 0 0 0 0 0 0 0 0 -0 -0 -0 -0 -0 -0 -0 -0 -0 -0 0 0
0 0 0 0 0 0 0 0 0 0 0 0 0 1 1 1 2 2 1 1 1 1 1 0 0 0 0 0 0 0 0 0 0 0 0 0 -0 -0 -0 -0 -0 -0 -0 -0 -0 -0 -0 0 0
0 0 0 0 0 0 0 0 0 0 0 0 1 1 1 2 2 2 2 1 1 1 1 0 0 0 0 0 0 0 0 0 0 0 -0 -0 -0 -0 -0 -0 -0 -0 -0 -0 -0 -0 -0 0 0
0 0 0 0 0 0 0 0 0 0 0 0 1 1 1 2 2 2 2 2 1 1 1 0 0 0 0 0 0 0 0 0 0 0 -0 -0 -0 -0 -0 -0 -0 -0 -0 -0 -0 -0 -0 0 0
0 0 0 0 0 0 0 0 0 0 0 1 1 1 1 2 2 2 2 2 1 1 1 1 0 0 0 0 0 0 0 0 0 0 0 0 0 0 -0 -0 -0 -0 -0 -0 -0 -0 -0 0 0
0 0 0 0 0 0 0 0 0 0 0 1 1 1 1 1 2 2 2 2 1 1 1 1 0 0 0 0 0 0 0 0 0 0 0 0 0 0 0 -0 -0 -0 -0 -0 -0 -0 -0 0 0
0 0 0 0 0 0 0 0 0 0 1 1 1 1 1 1 1 2 2 2 1 1 1 1 1 0 0 0 0 0 0 0 0 0 0 0 0 0 0 0 -0 -0 -0 -0 -0 -0 0 0 0
0 0 0 0 0 0 0 0 0 0 1 1 1 1 1 1 1 1 1 1 1 1 1 1 1 0 0 0 0 0 0 0 0 0 0 0 0 0 0 0 0 -0 -0 -0 0 0 0 0 0
0 0 0 0 0 0 0 0 0 1 1 1 1 1 1 1 1 1 1 1 1 1 1 1 1 1 0 0 0 0 0 0 0 0 0 0 0 0 0 0 0 0 0 0 0 0 0 0 0
0 0 0 0 0 0 0 0 0 1 1 1 2 2 2 1 1 1 1 1 1 1 1 1 1 1 1 0 0 0 0 0 0 0 0 0 0 0 0 0 0 0 0 0 0 0 0 0 0
0 0 0 0 0 0 0 0 0 1 1 2 2 2 2 2 2 1 1 1 1 1 1 1 1 1 1 1 0 0 0 0 0 0 0 0 0 0 0 0 0 0 0 0 0 0 0 0 0
0 0 0 0 0 0 0 0 0 1 1 2 2 2 2 2 2 2 2 2 1 1 1 1 1 1 1 1 0 0 0 0 0 0 0 0 0 0 0 0 0 0 0 0 0 0 0 0 0
0 0 0 0 0 0 0 0 0 1 1 1 2 2 2 2 2 2 2 2 1 1 1 1 1 1 1 1 0 0 0 0 0 0 0 0 0 0 0 0 0 0 0 0 0 0 0 0 0
0 0 0 0 0 0 0 0 0 0 1 1 2 2 2 2 2 2 2 2 1 1 1 1 1 1 1 1 0 0 0 0 0 0 0 0 0 0 0 0 0 0 0 0 0 0 0 0 0
0 0 0 0 0 0 0 0 0 0 1 1 1 2 2 2 2 2 2 1 1 1 1 1 1 1 0 0 0 0 0 0 0 0 0 0 0 0 0 0 0 0 0 0 0 0 0 0 0
0 0 0 0 0 0 0 0 0 0 1 1 1 1 1 2 2 2 1 1 1 1 1 1 1 1 0 0 0 0 0 0 0 0 0 0 0 0 0 0 0 0 0 0 0 0 0 0 0
0 0 0 0 0 0 0 0 0 0 0 1 1 1 1 1 1 1 1 1 1 1 1 1 1 0 0 0 0 0 0 0 0 0 0 0 0 0 0 0 0 0 0 0 0 0 0 0 0
0 0 0 0 0 0 0 0 0 0 0 0 1 1 1 1 1 1 1 1 1 1 1 1 1 0 0 0 0 0 0 0 0 0 0 0 0 0 0 0 0 0 0 0 0 0 0 0 0
0 0 0 0 0 0 0 0 0 0 0 1 1 1 1 1 1 1 1 1 1 1 1 1 1 0 0 0 0 0 0 0 0 0 0 0 0 0 0 0 0 0 0 0 0 0 0 0 0
0 0 0 0 0 0 0 0 0 0 1 1 1 1 1 1 1 1 1 1 1 1 1 1 0 0 0 0 0 0 0 0 0 0 0 0 0 0 0 0 0 0 0 0 0 0 0 0 0
0 0 0 0 0 0 0 0 0 0 1 1 1 1 1 1 1 1 1 1 1 1 1 1 0 0 0 0 0 0 0 0 0 0 0 0 0 0 0 0 0 0 0 0 0 0 0 0 0
0 0 0 0 0 0 0 0 0 0 1 1 1 1 1 1 1 0 0 0 0 0 0 0 0 0 0 0 0 0 0 0 0 0 0 0 0 0 0 0 0 0 0 0 0 0 0 0 0
0 0 0 0 0 0 0 0 0 0 1 1 1 1 1 0 0 0 0 0 0 0 0 0 0 0 0 0 0 0 0 0 0 0 0 0 0 0 0 0 0 0 0 0 0 0 0 0 0
Wind_Speed
5 4 2 1 4 4 2 4 7 8 6 6 8 9 7 5 4 5 5 14 17 14 11 15 16 16 16 16 15 15 15 14 14 14 14 14 14 14 14 13 13 13 12 12 12 13 13 13 13
2 3 2 3 5 3 1 5 8 8 9 10 10 10 8 7 8 10 8 14 17 14 10 13 17 17 17 16 15 15 14 14 14 13 13 13 13 13 13 13 13 12 12 12 12 12 12 12 12
2 1 3 4 2 2 1 4 8 9 10 9 6 6 6 8 10 7 11 18 15 12 10 13 19 18 17 16 15 15 14 14 13 13 13 13 13 13 13 13 13 12 12 12 12 12 12 11 11
1 3 4 4 2 4 4 4 8 11 7 7 8 6 4 6 8 13 19 18 16 12 10 14 19 18 17 17 16 15 14 14 13 13 13 13 13 13 13 13 13 12 12 12 12 12 12 11 10
3 4 5 4 4 3 3 6 7 9 6 7 9 6 4 4 18 21 19 18 17 13 9 13 19 18 17 17 16 15 14 13 13 13 13 13 13 13 13 13 13 12 12 12 12 11 11 10 10
4 4 3 3 5 4 2 6 9 10 10 9 9 7 3 11 20 20 18 16 16 15 11 12 18 18 17 17 16 15 14 14 13 13 13 13 13 13 13 13 12 12 12 11 11 11 10 9 8
4 3 0 3 5 3 2 4 9 10 9 7 9 7 5 10 16 17 16 15 14 14 12 9 11 13 17 17 16 15 14 14 13 13 13 13 13 13 13 12 12 11 11 10 10 9 9 8 7
5 4 1 3 3 3 2 3 6 10 7 9 9 9 9 12 15 16 15 13 12 11 10 8 7 7 8 10 15 15 15 14 13 13 13 13 13 12 12 10 11 11 10 10 9 8 8 6 6
4 4 3 4 3 3 1 4 3 4 9 5 4 7 12 18 19 18 15 12 11 11 9 9 8 7 7 7 12 12 13 13 12 11 13 11 5 5 6 9 10 10 9 9 8 7 6 5 4
4 4 9 7 5 3 2 5 5 5 7 5 7 9 15 17 19 20 18 16 14 14 11 10 10 9 8 8 6 4 5 6 5 4 6 4 4 3 6 8 10 9 8 7 6 6 4 3 2
4 7 8 8 7 4 2 2 3 9 5 9 13 16 18 17 16 17 18 17 16 15 14 11 11 9 8 5 6 3 3 3 4 5 5 4 3 3 3 2 4 4 5 2 3 2 1 1 1
4 9 8 6 5 3 3 2 2 4 8 12 17 19 18 17 16 17 17 16 14 14 13 12 11 10 8 7 6 5 4 4 4 4 5 4 3 3 3 2 2 2 1 2 1 0 1 1 1
5 6 7 6 5 4 1 3 2 3 8 13 16 16 16 15 13 12 13 14 15 15 14 13 12 10 8 7 6 7 5 5 5 5 5 6 4 4 4 3 2 2 2 2 2 1 1 1 1
5 7 9 6 6 3 1 2 2 4 11 15 16 15 14 13 13 12 13 13 14 14 14 12 13 11 10 7 6 6 5 5 5 5 6 7 5 5 4 3 3 3 3 3 3 3 2 1 2
5 8 11 7 4 3 2 1 3 10 13 14 13 13 12 11 11 13 15 14 14 14 12 12 12 11 10 8 7 6 5 5 5 5 6 6 6 6 5 4 4 3 3 3 2 2 1 1 2
6 5 5 9 4 4 4 5 5 10 14 13 13 12 11 9 10 11 13 12 12 12 12 12 12 11 9 7 6 5 4 5 5 5 5 6 7 7 5 4 4 4 3 3 3 2 2 1 1
4 3 6 10 6 4 4 5 5 11 13 12 12 12 11 10 8 9 12 13 12 12 12 11 10 11 9 7 5 5 4 4 4 4 4 5 6 7 5 4 4 4 3 3 3 2 2 2 2
5 4 6 8 6 2 2 3 5 10 13 13 12 10 10 10 10 10 10 10 11 10 10 10 9 9 8 6 4 4 3 3 3 4 5 6 5 6 5 4 4 4 3 2 2 3 2 2 2
7 8 10 11 7 0 2 3 5 7 11 11 10 9 9 8 7 9 10 10 9 8 9 10 10 9 7 5 4 4 3 3 3 3 5 6 6 6 5 4 4 4 4 4 4 3 2 1 2
9 9 9 9 7 1 1 1 1 5 9 13 14 11 10 7 6 8 9 10 10 10 9 9 10 9 8 5 4 3 3 3 3 3 4 5 5 6 6 5 4 4 4 4 3 3 2 1 2
10 7 7 7 6 5 3 5 4 1 3 6 9 10 11 12 11 10 9 9 10 10 11 10 10 9 8 7 4 3 2 2 2 2 3 4 5 5 5 6 5 4 4 4 4 4 4 2 1
9 9 6 3 3 4 2 1 5 0 3 5 7 8 9 9 9 9 9 9 10 10 9 9 9 9 8 7 7 7 5 4 5 4 4 4 5 5 5 6 6 5 4 4 4 4 3 4 2
9 8 3 1 1 3 5 2 5 2 2 4 7 9 10 10 10 10 10 10 9 9 9 9 9 8 7 7 8 7 5 4 3 3 4 4 3 4 5 5 5 5 4 4 4 4 4 3 3
6 3 7 6 6 2 4 2 4 2 4 4 5 9 9 9 9 8 7 7 6 7 8 8 8 8 8 7 7 7 7 5 5 5 5 4 3 3 4 4 5 5 4 5 5 5 5 4 4
0 5 5 6 5 5 4 2 6 5 3 4 6 8 8 7 8 7 7 7 7 8 8 7 8 7 7 7 7 7 7 7 7 6 6 5 3 3 4 4 4 4 4 5 4 4 4 4 4
4 10 8 5 5 5 4 2 5 2 3 5 4 6 7 6 6 7 7 7 7 8 8 8 8 7 7 7 6 6 6 5 4 5 5 5 4 4 5 4 4 4 5 5 4 3 4 3 3
5 5 9 8 2 1 3 3 3 2 5 6 6 5 5 6 6 7 6 6 6 7 7 8 8 7 6 6 5 5 6 6 6 5 5 4 4 4 5 5 5 5 5 5 4 3 4 3 3
9 8 6 6 4 2 3 3 5 5 5 4 4 5 4 6 7 6 5 5 5 5 5 6 7 6 6 6 5 4 5 5 5 5 5 5 4 4 5 5 5 5 4 4 4 3 3 3 3
3 4 6 5 6 7 3 7 7 9 10 9 6 6 7 7 7 7 5 5 5 5 5 5 6 5 4 5 4 4 3 3 4 4 4 4 4 4 4 5 4 5 5 4 4 3 3 4 3
7 8 9 6 5 6 5 7 3 7 7 7 6 6 5 7 7 7 6 5 5 5 5 5 5 5 4 4 4 4 3 3 3 3 4 4 4 4 4 4 4 4 4 4 4 4 3 3 3
Wind_Direction
226 208 169 91 47 41 84 102 100 82 67 67 81 92 100 84 125 139 125 134 133 138 141 140 137 133 130 128 125 121 118 115 113 111 110 110 110 110 111 111 112 113 114 115 116 116 115 115 114
216 194 122 52 66 52 65 99 96 105 120 106 85 87 79 68 87 108 120 136 135 136 137 140 138 135 133 131 129 126 122 120 118 117 116 114 114 113 113 114 115 115 116 116 116 117 116 116 117
248 130 80 59 66 158 144 117 118 107 111 106 95 76 82 112 117 119 137 137 133 133 134 142 139 137 136 134 131 129 126 125 122 121 119 119 119 117 117 117 117 118 118 118 117 116 116 117 117
35 45 48 56 297 228 178 185 127 113 95 85 94 74 75 126 131 132 138 138 134 134 135 143 140 139 138 136 134 132 130 128 126 124 124 123 122 121 120 118 117 117 117 117 118 117 116 115 114
67 63 38 3 293 260 217 183 140 117 112 103 97 89 58 71 119 132 140 140 137 135 137 143 142 141 141 139 138 137 135 133 131 129 127 126 125 123 122 120 119 118 117 117 118 118 117 115 113
55 59 49 319 298 279 229 158 121 114 117 115 108 102 86 124 131 142 142 140 140 140 141 144 145 145 144 143 142 141 140 138 137 135 132 129 127 126 125 124 123 122 120 118 118 117 116 114 109
97 90 242 278 297 292 195 150 127 135 137 143 134 110 116 142 143 143 139 138 140 141 142 143 147 148 149 148 147 146 144 143 142 139 136 134 132 131 131 129 128 126 124 122 120 118 115 112 108
140 107 297 271 259 267 208 133 142 139 140 141 139 138 157 162 144 137 134 135 138 141 142 142 144 144 146 149 151 151 149 149 146 143 141 140 138 136 135 132 133 131 128 126 123 120 118 115 107
119 90 233 237 229 254 233 111 132 116 121 135 137 145 152 145 138 136 135 136 144 147 149 148 149 146 144 150 158 154 153 154 152 150 149 140 127 127 133 142 141 137 134 133 131 129 127 117 102
120 167 225 225 222 214 211 138 149 112 111 102 95 111 133 140 145 148 152 155 158 159 162 159 157 157 157 161 147 149 154 153 148 150 142 131 135 147 147 155 150 147 144 141 140 139 130 104 83
184 214 241 250 243 215 186 155 144 132 148 163 150 146 147 147 152 156 161 163 163 163 164 164 163 164 167 154 150 156 151 152 155 160 154 149 147 149 137 140 147 146 147 133 139 129 87 108 120
238 256 252 256 257 243 191 167 138 159 180 167 153 151 153 157 162 165 164 164 162 165 167 165 166 168 171 160 164 165 164 168 170 174 168 155 149 147 150 149 152 150 144 156 157 159 231 195 164
271 278 282 270 279 257 189 188 168 168 145 141 143 148 157 162 161 164 162 161 161 165 167 166 165 167 166 164 174 170 174 177 176 172 170 161 157 162 163 164 167 170 166 174 187 200 207 198 165
283 305 308 302 302 288 178 241 133 163 141 144 153 158 161 165 163 158 160 164 167 169 169 167 166 168 164 167 174 168 173 174 171 172 173 167 164 165 163 167 174 180 180 181 185 188 185 179 141
321 328 321 305 289 266 110 307 190 157 147 153 160 161 162 167 167 167 169 169 168 167 166 168 166 164 164 168 173 165 169 170 171 173 174 169 164 165 161 163 172 185 181 177 170 172 149 150 140
348 344 312 294 280 261 138 228 220 155 151 159 163 166 166 172 174 170 166 164 163 162 164 169 169 164 164 161 158 155 161 168 173 169 170 169 163 161 157 161 176 181 170 164 164 158 140 148 154
346 300 281 292 274 236 163 208 193 158 154 160 165 170 172 172 176 169 166 164 164 165 165 164 162 162 162 156 147 152 161 167 169 164 163 169 166 161 156 165 175 169 162 168 176 153 152 158 167
257 279 294 291 281 234 189 195 175 159 158 162 164 167 169 173 177 166 160 161 161 163 161 157 156 158 155 147 138 140 145 159 162 163 167 168 168 161 155 164 173 163 155 165 161 151 153 157 164
254 278 282 281 284 242 206 190 185 164 156 158 161 161 161 170 161 152 151 153 154 157 157 157 157 159 153 149 153 152 159 161 163 172 171 173 168 163 159 161 165 161 162 172 163 148 148 153 133
260 270 282 294 302 302 172 254 198 168 168 163 159 161 159 154 150 154 153 156 163 167 165 160 162 164 165 165 158 153 149 163 164 168 177 177 172 172 172 163 169 167 159 163 162 147 139 165 142
264 252 260 272 313 0 60 359 351 25 130 149 151 156 158 165 164 167 164 164 165 170 170 167 167 168 169 162 141 130 109 98 135 168 185 189 179 178 174 170 172 171 164 169 174 163 153 170 198
266 260 259 288 9 325 46 305 301 239 138 152 153 152 164 171 167 171 169 170 172 173 169 163 165 166 166 161 160 166 170 178 190 182 188 191 184 176 174 173 174 176 171 172 181 171 162 156 177
239 259 280 313 80 13 2 97 293 358 143 179 166 168 172 174 170 173 176 174 171 167 165 165 165 167 167 168 171 175 177 185 176 172 180 187 186 186 180 176 174 177 179 183 181 170 169 162 168
243 359 17 39 62 9 279 146 274 260 211 193 174 171 172 168 165 168 165 156 160 161 163 165 167 172 173 173 174 177 179 177 172 176 179 178 178 194 199 184 182 182 183 187 187 180 175 175 168
111 85 27 356 6 258 272 147 245 250 189 162 173 167 159 156 157 160 159 162 163 164 167 167 168 175 177 176 179 183 185 180 180 181 182 177 180 194 208 198 188 187 187 189 182 178 178 177 173
199 141 158 196 225 276 326 225 259 265 105 114 126 141 142 153 153 158 163 162 162 166 168 167 171 175 178 181 187 189 187 184 186 187 183 186 189 194 197 194 191 190 190 193 178 179 187 180 182
180 184 173 144 171 252 289 293 320 34 76 93 101 103 133 149 148 148 149 148 152 156 164 168 166 169 173 180 184 185 183 182 184 185 184 185 187 191 194 192 193 195 190 184 173 179 186 174 182
175 164 106 122 159 227 265 236 212 198 160 127 135 142 142 140 142 144 146 148 149 155 156 155 159 165 171 174 178 182 183 181 178 173 182 185 186 185 182 193 194 189 182 174 169 166 171 165 186
185 154 132 135 154 154 204 256 222 187 170 162 166 157 157 149 150 150 152 156 146 137 141 146 150 150 157 163 165 162 164 168 164 167 177 180 179 175 179 186 184 180 175 165 162 167 159 166 184
179 183 152 158 211 163 167 256 272 165 159 151 153 156 147 147 152 151 152 147 134 131 139 143 145 144 149 147 142 145 143 143 152 163 172 168 168 169 169 163 159 162 155 156 157 163 162 158 162